Weather History for Norman, OK

Change the Weather History Date:

Tuesday, October 16, 2012

  Actual Average Record
Temperature  
Mean Temperature 66 °F -  
Max Temperature 78 °F 74 °F 90 °F (1972)
Min Temperature 55 °F 48 °F 31 °F (1966)
Cooling Degree Days 2    
Growing Degree Days 16 (Base 50)    
Moisture  
Dew Point 54 °F    
Average Humidity 68    
Maximum Humidity 88    
Minimum Humidity 41    
Precipitation  
Precipitation 0.00 in - - ()
Sea Level Pressure  
Sea Level Pressure 29.75 in    
Wind  
Wind Speed 12 mph (South)    
Max Wind Speed 21 mph    
Max Gust Speed 29 mph    
Visibility 10 miles    
Events      
Averages and records for this station are not official NWS values.
T = Trace of Precipitation, MM = Missing Value Source: NWS Daily Summary

Daily Weather History Graph

Daily Weather History Graph

Search for Another Location

Airport:

Trip Planner

Search our weather history database for the weather conditions in past years. The results will help you decide how hot, cold, wet, or windy it might be!

Date:

Astronomy

Oct. 16, 2012 Rise Set
Actual Time 7:37 AM CDT 6:52 PM CDT
Civil Twilight 7:11 AM CDT 7:18 PM CDT
Nautical Twilight 6:42 AM CDT 7:47 PM CDT
Astronomical Twilight 6:12 AM CDT 8:17 PM CDT
Moon 8:57 AM CDT (10/16) 7:43 PM CDT (10/16)
Length of Visible Light 12h 06m
Length of Day
11h 15m
New Moon, 2% of the Moon is Illuminated
Oct 16
New Moon
Oct 21
First Quarter
Oct 29
Full
Nov 6
Last Quarter
Nov 13
New

Hourly Weather History & Observations

Time (CDT) Temp. Dew Point Humidity Pressure Visibility Wind Dir Wind Speed Gust Speed Precip Events Conditions
12:15 AM 62.6 °F 51.8 °F 68% 29.93 in 10.0 mi South 12.7 mph - N/A   Clear
12:55 AM 62.6 °F 51.8 °F 68% 29.92 in 10.0 mi South 10.4 mph - N/A   Clear
1:15 AM 60.8 °F 51.8 °F 72% 29.91 in 10.0 mi South 10.4 mph - N/A   Clear
1:35 AM 60.8 °F 51.8 °F 72% 29.91 in 10.0 mi South 9.2 mph - N/A   Clear
1:55 AM 60.8 °F 51.8 °F 72% 29.91 in 10.0 mi South 9.2 mph - N/A   Clear
2:15 AM 59.0 °F 51.8 °F 77% 29.91 in 10.0 mi South 10.4 mph - N/A   Clear
2:55 AM 59.0 °F 51.8 °F 77% 29.90 in 10.0 mi South 10.4 mph - N/A   Clear
3:15 AM 60.8 °F 51.8 °F 72% 29.89 in 10.0 mi South 11.5 mph - N/A   Clear
3:35 AM 60.8 °F 50.0 °F 68% 29.89 in 10.0 mi South 10.4 mph - N/A   Clear
3:55 AM 59.0 °F 50.0 °F 72% 29.88 in 10.0 mi South 9.2 mph - N/A   Clear
4:15 AM 59.0 °F 50.0 °F 72% 29.88 in 10.0 mi South 6.9 mph - N/A   Clear
4:35 AM 57.2 °F 50.0 °F 77% 29.88 in 10.0 mi South 8.1 mph - N/A   Clear
4:55 AM 55.4 °F 50.0 °F 82% 29.87 in 10.0 mi South 8.1 mph - N/A   Clear
5:15 AM 57.2 °F 50.0 °F 77% 29.87 in 10.0 mi South 8.1 mph - N/A   Clear
5:35 AM 57.2 °F 50.0 °F 77% 29.86 in 10.0 mi South 6.9 mph - N/A   Clear
5:55 AM 55.4 °F 50.0 °F 82% 29.86 in 10.0 mi South 9.2 mph - N/A   Clear
6:35 AM 55.4 °F 50.0 °F 82% 29.85 in 10.0 mi SSE 5.8 mph - N/A   Clear
7:15 AM 55.4 °F 50.0 °F 82% 29.85 in 10.0 mi SSE 6.9 mph - N/A   Clear
7:35 AM 55.4 °F 50.0 °F 82% 29.84 in 10.0 mi SSE 6.9 mph - N/A   Clear
7:55 AM 55.4 °F 51.8 °F 88% 29.84 in 10.0 mi SSE 3.5 mph - N/A   Clear
8:15 AM 55.4 °F 51.8 °F 88% 29.84 in 10.0 mi SSE 10.4 mph - N/A   Clear
8:35 AM 55.4 °F 51.8 °F 88% 29.84 in 10.0 mi SSE 10.4 mph - N/A   Clear
8:55 AM 59.0 °F 51.8 °F 77% 29.84 in 10.0 mi SSE 3.5 mph - N/A   Clear
9:15 AM 59.0 °F 51.8 °F 77% 29.84 in 10.0 mi South 9.2 mph - N/A   Clear
9:35 AM 62.6 °F 53.6 °F 72% 29.84 in 10.0 mi South 12.7 mph 17.3 mph N/A   Clear
9:55 AM 66.2 °F 53.6 °F 64% 29.84 in 10.0 mi South 15.0 mph - N/A   Clear
10:15 AM 68.0 °F 51.8 °F 56% 29.84 in 10.0 mi South 18.4 mph - N/A   Clear
10:35 AM 69.8 °F 51.8 °F 53% 29.83 in 10.0 mi South 15.0 mph 24.2 mph N/A   Clear
10:55 AM 69.8 °F 51.8 °F 53% 29.82 in 10.0 mi South 15.0 mph 25.3 mph N/A   Clear
11:15 AM 71.6 °F 51.8 °F 50% 29.82 in 10.0 mi South 20.7 mph - N/A   Scattered Clouds
11:35 AM 73.4 °F 51.8 °F 47% 29.80 in 10.0 mi South 20.7 mph 25.3 mph N/A   Clear
11:55 AM 73.4 °F 50.0 °F 44% 29.79 in 10.0 mi South 20.7 mph 28.8 mph N/A   Clear
12:35 PM 75.2 °F 50.0 °F 41% 29.78 in 10.0 mi South 20.7 mph 25.3 mph N/A   Clear
12:55 PM 75.2 °F 51.8 °F 44% 29.76 in 10.0 mi South 20.7 mph 28.8 mph N/A   Clear
1:35 PM 78.8 °F 53.6 °F 42% 29.73 in 10.0 mi South 20.7 mph 26.5 mph N/A   Clear
1:55 PM 77.0 °F 53.6 °F 44% 29.71 in 10.0 mi South 19.6 mph 26.5 mph N/A   Clear
2:35 PM 78.8 °F 55.4 °F 44% 29.68 in 10.0 mi South 16.1 mph 24.2 mph N/A   Clear
2:55 PM 78.8 °F 57.2 °F 47% 29.67 in 10.0 mi South 17.3 mph 23.0 mph N/A   Clear
3:35 PM 78.8 °F 59.0 °F 51% 29.67 in 10.0 mi South 18.4 mph 26.5 mph N/A   Clear
3:55 PM 78.8 °F 59.0 °F 51% 29.65 in 10.0 mi South 18.4 mph 25.3 mph N/A   Clear
4:35 PM 77.0 °F 59.0 °F 54% 29.64 in 10.0 mi South 20.7 mph 26.5 mph N/A   Clear
4:55 PM 77.0 °F 59.0 °F 54% 29.63 in 10.0 mi South 19.6 mph 25.3 mph N/A   Clear
5:35 PM 75.2 °F 59.0 °F 57% 29.63 in 10.0 mi South 19.6 mph 27.6 mph N/A   Clear
5:55 PM 75.2 °F 59.0 °F 57% 29.61 in 10.0 mi South 19.6 mph 25.3 mph N/A   Clear
6:15 PM 73.4 °F 59.0 °F 61% 29.61 in 10.0 mi South 13.8 mph 23.0 mph N/A   Clear
6:35 PM 73.4 °F 59.0 °F 61% 29.61 in 10.0 mi South 16.1 mph 19.6 mph N/A   Clear
6:55 PM 71.6 °F 59.0 °F 64% 29.60 in 10.0 mi South 12.7 mph - N/A   Clear
7:15 PM 69.8 °F 59.0 °F 68% 29.59 in 10.0 mi South 12.7 mph - N/A   Clear
7:35 PM 69.8 °F 59.0 °F 68% 29.60 in 10.0 mi SSE 11.5 mph - N/A   Clear
7:55 PM 69.8 °F 59.0 °F 68% 29.60 in 10.0 mi SSE 9.2 mph - N/A   Clear
8:15 PM 68.0 °F 59.0 °F 73% 29.60 in 10.0 mi SSE 12.7 mph 17.3 mph N/A   Clear
8:35 PM 68.0 °F 59.0 °F 73% 29.60 in 10.0 mi SSE 12.7 mph 17.3 mph N/A   Clear
8:55 PM 68.0 °F 59.0 °F 73% 29.60 in 10.0 mi SSE 15.0 mph 19.6 mph N/A   Clear
9:15 PM 68.0 °F 59.0 °F 73% 29.59 in 10.0 mi SSE 13.8 mph 19.6 mph N/A   Clear
9:35 PM 66.2 °F 59.0 °F 78% 29.60 in 10.0 mi SSE 15.0 mph - N/A   Clear
9:55 PM 66.2 °F 59.0 °F 78% 29.60 in 10.0 mi SSE 15.0 mph - N/A   Clear
10:35 PM 64.4 °F 59.0 °F 83% 29.59 in 10.0 mi SSE 15.0 mph 20.7 mph N/A   Clear
10:55 PM 64.4 °F 59.0 °F 83% 29.59 in 10.0 mi SSE 15.0 mph 21.9 mph N/A   Clear
11:15 PM 64.4 °F 60.8 °F 88% 29.59 in 10.0 mi South 16.1 mph 19.6 mph N/A   Clear
11:35 PM 64.4 °F 60.8 °F 88% 29.59 in 10.0 mi South 15.0 mph - N/A   Clear
11:55 PM 64.4 °F 60.8 °F 88% 29.58 in 10.0 mi South 17.3 mph 21.9 mph N/A   Clear